AEA2HR LIEE-LEGE

Flight info

Callsign AEA2HR
Flight time N/A
Altitude 36000
Route KOVAS DCT CAPOF DCT XATOS DCT BAVON DCT OSPOK DCT AGENA L16 BGR
Aircraft B738/M-SDE2E3FGHIRWXY/LB1

Departure

Time 2026-05-01 12:31
Airport Cagliari Elmas Airport (LIEE)

Arrival

Time N/A
Airport Girona-Costa Brava Airport (LEGE)
Time Latitude Longitude Altitude Speed Heading
2026-05-01 12:14 39.25151 9.06077 21 ft 0 kts 142°
2026-05-01 12:28 39.25077 9.06085 21 ft 15 kts 178°
2026-05-01 12:28 39.24952 9.06141 21 ft 23 kts 142°
2026-05-01 12:28 39.24549 9.06504 21 ft 44 kts 149°
2026-05-01 12:29 39.24342 9.06575 21 ft 9 kts 188°
2026-05-01 12:29 39.24337 9.06574 21 ft 0 kts 188°
2026-05-01 12:30 39.24295 9.06565 21 ft 17 kts 192°
2026-05-01 12:30 39.24287 9.06430 21 ft 24 kts 315°
2026-05-01 12:30 39.24549 9.06124 21 ft 81 kts 318°
2026-05-01 12:31 39.25115 9.05465 21 ft 139 kts 317°
2026-05-01 12:31 39.25953 9.04488 259 ft 175 kts 317°
2026-05-01 12:31 39.26865 9.03514 1216 ft 173 kts 332°
2026-05-01 12:31 39.27958 9.02900 1665 ft 180 kts 329°
2026-05-01 12:32 39.28914 9.01752 1952 ft 195 kts 308°
2026-05-01 12:32 39.31004 8.99172 2681 ft 222 kts 322°
2026-05-01 12:32 39.32275 8.97925 3052 ft 236 kts 323°
2026-05-01 12:33 39.33614 8.96602 3415 ft 250 kts 322°
2026-05-01 12:33 39.35039 8.95170 3854 ft 261 kts 322°
2026-05-01 12:33 39.36470 8.93717 4426 ft 266 kts 322°
2026-05-01 12:33 39.37914 8.92248 5030 ft 269 kts 322°
2026-05-01 12:34 39.39391 8.90744 5655 ft 271 kts 322°
2026-05-01 12:34 39.40879 8.89230 6287 ft 274 kts 322°
2026-05-01 12:34 39.42378 8.87704 6922 ft 276 kts 322°
2026-05-01 12:34 39.43882 8.86173 7558 ft 279 kts 322°
2026-05-01 12:35 39.45423 8.84601 8208 ft 282 kts 322°
2026-05-01 12:35 39.46950 8.83045 8851 ft 284 kts 322°
2026-05-01 12:35 39.48523 8.81440 9511 ft 287 kts 322°
2026-05-01 12:35 39.50078 8.79853 10159 ft 290 kts 322°
2026-05-01 12:36 39.51691 8.78205 10570 ft 303 kts 322°
2026-05-01 12:36 39.53396 8.76463 10999 ft 314 kts 322°
2026-05-01 12:36 39.55113 8.74708 11597 ft 320 kts 322°
2026-05-01 12:36 39.56871 8.72910 12250 ft 324 kts 322°
2026-05-01 12:37 39.58627 8.71112 12908 ft 327 kts 322°
2026-05-01 12:37 39.60441 8.69253 13587 ft 331 kts 322°
2026-05-01 12:37 39.62240 8.67408 14256 ft 334 kts 322°
2026-05-01 12:37 39.64073 8.65527 14929 ft 337 kts 322°
2026-05-01 12:38 39.65919 8.63631 15596 ft 341 kts 322°
2026-05-01 12:38 39.67789 8.61709 16253 ft 344 kts 322°
2026-05-01 12:38 39.69667 8.59779 16890 ft 348 kts 322°
2026-05-01 12:38 39.71548 8.57843 17510 ft 351 kts 322°
2026-05-01 12:39 39.73477 8.55857 18125 ft 354 kts 322°
2026-05-01 12:39 39.75402 8.53873 18719 ft 357 kts 322°
2026-05-01 12:39 39.77358 8.51856 19302 ft 360 kts 322°
2026-05-01 12:39 39.79310 8.49765 19866 ft 364 kts 318°
2026-05-01 12:40 39.81063 8.47420 20402 ft 367 kts 309°
2026-05-01 12:40 39.82478 8.44677 20935 ft 370 kts 298°
2026-05-01 12:40 39.83534 8.41626 21457 ft 372 kts 290°
2026-05-01 12:40 39.84294 8.38379 21963 ft 375 kts 283°
2026-05-01 12:41 39.84665 8.35049 22442 ft 378 kts 273°
2026-05-01 12:41 39.84558 8.31636 22922 ft 381 kts 262°
2026-05-01 12:41 39.84048 8.28237 23394 ft 384 kts 255°
2026-05-01 12:41 39.83192 8.24944 23839 ft 387 kts 246°
2026-05-01 12:42 39.81900 8.21885 24285 ft 389 kts 236°
2026-05-01 12:42 39.80303 8.19049 24711 ft 392 kts 230°
2026-05-01 12:42 39.78449 8.16490 25134 ft 394 kts 222°
2026-05-01 12:42 39.76306 8.14258 25553 ft 396 kts 218°
2026-05-01 12:43 39.74252 8.11857 25933 ft 399 kts 227°
2026-05-01 12:43 39.72543 8.08983 26324 ft 402 kts 238°
2026-05-01 12:43 39.71256 8.05757 26720 ft 404 kts 247°
2026-05-01 12:43 39.70309 8.02330 27098 ft 406 kts 253°
2026-05-01 12:44 39.69630 7.98772 27447 ft 409 kts 261°
2026-05-01 12:44 39.69409 7.95132 27807 ft 411 kts 271°